Time,TemperatureF,DewpointF,PressureIn,WindDirection,WindDirectionDegrees,WindSpeedMPH,WindSpeedGustMPH,Humidity,HourlyPrecipIn,Conditions,Clouds,dailyrainin,SoftwareType,DateUTC
2013-02-06 00:02:00,29.0,27.0,-100.00,WNW,295,12.0,15.0,93,0.00,,,-99.99,,2013-02-06 05:02:00,
2013-02-06 00:12:00,29.0,27.0,-100.00,WNW,300,11.0,16.0,92,0.00,,,-99.99,,2013-02-06 05:12:00,
2013-02-06 00:22:00,29.0,27.0,-100.00,WNW,300,12.0,15.0,91,0.00,,,-99.99,,2013-02-06 05:22:00,
2013-02-06 00:32:00,29.0,27.0,-100.00,WNW,295,9.0,16.0,90,0.00,,,-99.99,,2013-02-06 05:32:00,
2013-02-06 00:41:00,29.0,26.0,-100.00,NW,315,7.0,18.0,89,0.00,,,-99.99,,2013-02-06 05:41:00,
2013-02-06 00:52:00,29.0,26.0,-100.00,WNW,295,7.0,16.0,88,0.00,,,-99.99,,2013-02-06 05:52:00,
2013-02-06 01:01:00,29.0,26.0,-100.00,NW,315,9.0,12.0,86,0.00,,,-99.99,,2013-02-06 06:01:00,
2013-02-06 01:11:00,29.0,25.0,-100.00,NW,310,9.0,16.0,85,0.00,,,-99.99,,2013-02-06 06:11:00,
2013-02-06 01:21:00,29.0,25.0,-100.00,NW,305,9.0,12.0,83,0.00,,,-99.99,,2013-02-06 06:21:00,
2013-02-06 01:32:00,29.0,24.0,-100.00,NW,305,9.0,12.0,81,0.00,,,-99.99,,2013-02-06 06:32:00,
2013-02-06 01:42:00,29.0,24.0,-100.00,NW,310,7.0,12.0,81,0.00,,,-99.99,,2013-02-06 06:42:00,
2013-02-06 01:51:00,29.0,23.0,-100.00,NW,315,11.0,12.0,79,0.00,,,-99.99,,2013-02-06 06:51:00,
2013-02-06 02:02:00,29.0,24.0,-100.00,NW,315,9.0,13.0,80,0.00,,,-99.99,,2013-02-06 07:02:00,
2013-02-06 02:11:00,29.0,22.0,-100.00,NW,310,9.0,16.0,75,0.00,,,-99.99,,2013-02-06 07:11:00,
2013-02-06 02:22:00,29.0,22.0,-100.00,NW,315,6.0,9.0,76,0.00,,,-99.99,,2013-02-06 07:22:00,
2013-02-06 02:32:00,29.0,22.0,-100.00,NW,315,6.0,8.0,75,0.00,,,-99.99,,2013-02-06 07:32:00,
2013-02-06 02:42:00,29.0,22.0,-100.00,NW,325,6.0,9.0,76,0.00,,,-99.99,,2013-02-06 07:42:00,
2013-02-06 02:51:00,29.0,22.0,-100.00,NNW,330,6.0,8.0,74,0.00,,,-99.99,,2013-02-06 07:51:00,
2013-02-06 03:01:00,29.0,20.0,-100.00,NW,315,9.0,12.0,71,0.00,,,-99.99,,2013-02-06 08:01:00,
2013-02-06 03:11:00,29.0,20.0,-100.00,NNW,335,10.0,16.0,71,0.00,,,-99.99,,2013-02-06 08:11:00,
2013-02-06 03:21:00,28.0,21.0,-100.00,NNW,345,12.0,15.0,73,0.00,,,-99.99,,2013-02-06 08:21:00,
2013-02-06 03:32:00,28.0,20.0,-100.00,NNW,330,11.0,17.0,73,0.00,,,-99.99,,2013-02-06 08:32:00,
2013-02-06 03:42:00,27.0,20.0,-100.00,North,355,9.0,14.0,75,0.00,,,-99.99,,2013-02-06 08:42:00,
2013-02-06 03:53:00,27.0,20.0,-100.00,NNW,340,9.0,14.0,75,0.00,,,-99.99,,2013-02-06 08:53:00,
2013-02-06 04:02:00,27.0,20.0,-100.00,NNW,340,11.0,12.0,74,0.00,,,-99.99,,2013-02-06 09:02:00,
2013-02-06 04:11:00,26.0,20.0,-100.00,NNW,345,9.0,11.0,76,0.00,,,-99.99,,2013-02-06 09:11:00,
2013-02-06 04:21:00,26.0,20.0,-100.00,North,350,7.0,12.0,76,0.00,,,-99.99,,2013-02-06 09:21:00,
2013-02-06 04:32:00,26.0,20.0,-100.00,North,5,8.0,12.0,77,0.00,,,-99.99,,2013-02-06 09:32:00,
2013-02-06 04:41:00,26.0,19.0,-100.00,North,10,7.0,11.0,74,0.00,,,-99.99,,2013-02-06 09:41:00,
2013-02-06 04:52:00,25.0,18.0,-100.00,North,5,5.0,9.0,72,0.00,,,-99.99,,2013-02-06 09:52:00,
2013-02-06 05:01:00,25.0,18.0,-100.00,North,5,5.0,9.0,72,0.00,,,-99.99,,2013-02-06 10:01:00,
2013-02-06 05:11:00,25.0,16.0,-100.00,North,5,8.0,11.0,67,0.00,,,-99.99,,2013-02-06 10:11:00,
2013-02-06 05:21:00,25.0,16.0,-100.00,North,0,6.0,10.0,68,0.00,,,-99.99,,2013-02-06 10:21:00,
2013-02-06 05:32:00,24.0,16.0,-100.00,North,355,4.0,6.0,68,0.00,,,-99.99,,2013-02-06 10:32:00,
2013-02-06 05:42:00,24.0,16.0,-100.00,North,355,2.0,6.0,70,0.00,,,-99.99,,2013-02-06 10:42:00,
2013-02-06 05:52:00,24.0,16.0,-100.00,North,355,2.0,6.0,70,0.00,,,-99.99,,2013-02-06 10:52:00,
2013-02-06 06:01:00,24.0,16.0,-100.00,NNE,20,1.0,1.0,69,0.00,,,-99.99,,2013-02-06 11:01:00,
2013-02-06 06:11:00,24.0,16.0,-100.00,North,10,0.0,1.0,69,0.00,,,-99.99,,2013-02-06 11:11:00,
2013-02-06 06:22:00,24.0,16.0,-100.00,North,0,0.0,0.0,69,0.00,,,-99.99,,2013-02-06 11:22:00,
2013-02-06 06:32:00,24.0,15.0,-100.00,North,0,0.0,0.0,69,0.00,,,-99.99,,2013-02-06 11:32:00,
2013-02-06 06:42:00,23.0,15.0,-100.00,North,350,0.0,0.0,71,0.00,,,-99.99,,2013-02-06 11:42:00,
2013-02-06 06:52:00,23.0,16.0,-100.00,North,350,0.0,0.0,73,0.00,,,-99.99,,2013-02-06 11:52:00,
2013-02-06 07:02:00,23.0,15.0,-100.00,SW,215,1.0,3.0,72,0.00,,,-99.99,,2013-02-06 12:02:00,
2013-02-06 07:12:00,23.0,15.0,-100.00,SSE,165,0.0,1.0,72,0.00,,,-99.99,,2013-02-06 12:12:00,
2013-02-06 07:22:00,21.0,15.0,-100.00,South,175,1.0,2.0,76,0.00,,,-99.99,,2013-02-06 12:22:00,
2013-02-06 07:32:00,22.0,15.0,-100.00,SSE,165,0.0,1.0,74,0.00,,,-99.99,,2013-02-06 12:32:00,
2013-02-06 07:42:00,21.0,15.0,-100.00,SSE,150,1.0,2.0,76,0.00,,,-99.99,,2013-02-06 12:42:00,
2013-02-06 07:52:00,20.0,15.0,-100.00,ENE,75,0.0,0.0,79,0.00,,,-99.99,,2013-02-06 12:52:00,
2013-02-06 08:02:00,20.0,15.0,-100.00,SSW,200,1.0,2.0,80,0.00,,,-99.99,,2013-02-06 13:02:00,
2013-02-06 08:12:00,21.0,15.0,-100.00,SW,220,0.0,2.0,78,0.00,,,-99.99,,2013-02-06 13:12:00,
2013-02-06 08:22:00,20.0,15.0,-100.00,West,275,0.0,2.0,79,0.00,,,-99.99,,2013-02-06 13:22:00,
2013-02-06 08:32:00,21.0,15.0,-100.00,WSW,255,0.0,0.0,78,0.00,,,-99.99,,2013-02-06 13:32:00,
2013-02-06 08:42:00,21.0,15.0,-100.00,SW,225,0.0,0.0,77,0.00,,,-99.99,,2013-02-06 13:42:00,
2013-02-06 08:52:00,22.0,15.0,-100.00,SSE,165,1.0,1.0,75,0.00,,,-99.99,,2013-02-06 13:52:00,
2013-02-06 09:02:00,22.0,15.0,-100.00,SE,135,0.0,2.0,73,0.00,,,-99.99,,2013-02-06 14:02:00,
2013-02-06 09:11:00,24.0,15.0,-100.00,SE,135,0.0,1.0,67,0.00,,,-99.99,,2013-02-06 14:11:00,
2013-02-06 09:22:00,23.0,15.0,-100.00,SE,125,2.0,3.0,72,0.00,,,-99.99,,2013-02-06 14:22:00,
2013-02-06 09:32:00,24.0,15.0,-100.00,SE,130,2.0,3.0,70,0.00,,,-99.99,,2013-02-06 14:32:00,
2013-02-06 09:42:00,24.0,14.0,-100.00,SE,130,2.0,4.0,67,0.00,,,-99.99,,2013-02-06 14:42:00,
2013-02-06 09:52:00,25.0,15.0,-100.00,SE,140,2.0,4.0,66,0.00,,,-99.99,,2013-02-06 14:52:00,
2013-02-06 10:02:00,25.0,14.0,-100.00,SE,145,4.0,6.0,62,0.00,,,-99.99,,2013-02-06 15:02:00,
2013-02-06 10:11:00,26.0,14.0,-100.00,ESE,120,2.0,6.0,62,0.00,,,-99.99,,2013-02-06 15:11:00,
2013-02-06 10:21:00,26.0,15.0,-100.00,ESE,120,2.0,4.0,61,0.00,,,-99.99,,2013-02-06 15:21:00,
2013-02-06 10:32:00,26.0,15.0,-100.00,ESE,120,2.0,4.0,61,0.00,,,-99.99,,2013-02-06 15:32:00,
2013-02-06 10:42:00,27.0,14.0,-100.00,SE,145,2.0,3.0,57,0.00,,,-99.99,,2013-02-06 15:42:00,
2013-02-06 10:52:00,28.0,14.0,-100.00,SE,130,2.0,3.0,55,0.00,,,-99.99,,2013-02-06 15:52:00,
2013-02-06 11:01:00,28.0,14.0,-100.00,SE,145,3.0,3.0,55,0.00,,,-99.99,,2013-02-06 16:01:00,
2013-02-06 11:11:00,29.0,13.0,-100.00,SSE,150,1.0,3.0,52,0.00,,,-99.99,,2013-02-06 16:11:00,
2013-02-06 11:21:00,29.0,14.0,-100.00,SE,140,1.0,3.0,51,0.00,,,-99.99,,2013-02-06 16:21:00,
2013-02-06 11:32:00,28.0,13.0,-100.00,SE,135,4.0,6.0,52,0.00,,,-99.99,,2013-02-06 16:32:00,
2013-02-06 11:42:00,29.0,13.0,-100.00,SE,130,3.0,6.0,52,0.00,,,-99.99,,2013-02-06 16:42:00,
2013-02-06 11:52:00,29.0,13.0,-100.00,SE,140,3.0,4.0,50,0.00,,,-99.99,,2013-02-06 16:52:00,
2013-02-06 12:02:00,29.0,12.0,-100.00,SE,140,3.0,5.0,47,0.00,,,-99.99,,2013-02-06 17:02:00,
2013-02-06 12:11:00,28.0,12.0,-100.00,SE,145,4.0,6.0,49,0.00,,,-99.99,,2013-02-06 17:11:00,
2013-02-06 12:22:00,28.0,11.0,-100.00,SSE,150,4.0,6.0,47,0.00,,,-99.99,,2013-02-06 17:22:00,
2013-02-06 12:32:00,29.0,12.0,-100.00,SSE,160,3.0,6.0,48,0.00,,,-99.99,,2013-02-06 17:32:00,
2013-02-06 12:42:00,29.0,13.0,-100.00,SE,140,4.0,6.0,51,0.00,,,-99.99,,2013-02-06 17:42:00,
2013-02-06 12:52:00,29.0,12.0,-100.00,SE,145,4.0,7.0,49,0.00,,,-99.99,,2013-02-06 17:52:00,
2013-02-06 13:02:00,30.0,13.0,-100.00,SE,135,2.0,6.0,48,0.00,,,-99.99,,2013-02-06 18:02:00,
2013-02-06 13:11:00,31.0,13.0,-100.00,SE,140,2.0,4.0,46,0.00,,,-99.99,,2013-02-06 18:11:00,
2013-02-06 13:23:00,32.0,12.0,-100.00,South,185,0.0,3.0,43,0.00,,,-99.99,,2013-02-06 18:23:00,
2013-02-06 13:32:00,31.0,14.0,-100.00,SE,135,2.0,4.0,47,0.00,,,-99.99,,2013-02-06 18:32:00,
2013-02-06 13:42:00,31.0,13.0,-100.00,ESE,115,2.0,4.0,46,0.00,,,-99.99,,2013-02-06 18:42:00,
2013-02-06 13:52:00,31.0,13.0,-100.00,ENE,70,1.0,4.0,46,0.00,,,-99.99,,2013-02-06 18:52:00,
2013-02-06 14:02:00,31.0,13.0,-100.00,East,100,2.0,3.0,46,0.00,,,-99.99,,2013-02-06 19:02:00,
2013-02-06 14:11:00,31.0,13.0,-100.00,SE,135,2.0,4.0,46,0.00,,,-99.99,,2013-02-06 19:11:00,
2013-02-06 14:21:00,31.0,14.0,-100.00,SE,135,1.0,3.0,47,0.00,,,-99.99,,2013-02-06 19:21:00,
2013-02-06 14:32:00,31.0,13.0,-100.00,SE,140,4.0,5.0,47,0.00,,,-99.99,,2013-02-06 19:32:00,
2013-02-06 14:42:00,31.0,13.0,-100.00,SE,140,2.0,6.0,47,0.00,,,-99.99,,2013-02-06 19:42:00,
2013-02-06 14:52:00,31.0,14.0,-100.00,SSE,150,2.0,5.0,48,0.00,,,-99.99,,2013-02-06 19:52:00,
2013-02-06 15:01:00,29.0,13.0,-100.00,South,175,4.0,7.0,50,0.00,,,-99.99,,2013-02-06 20:01:00,
2013-02-06 15:11:00,29.0,14.0,-100.00,South,170,4.0,7.0,51,0.00,,,-99.99,,2013-02-06 20:11:00,
2013-02-06 15:21:00,29.0,14.0,-100.00,South,170,4.0,9.0,53,0.00,,,-99.99,,2013-02-06 20:21:00,
2013-02-06 15:32:00,28.0,14.0,-100.00,South,175,9.0,12.0,54,0.00,,,-99.99,,2013-02-06 20:32:00,
2013-02-06 15:42:00,28.0,14.0,-100.00,South,185,11.0,13.0,55,0.00,,,-99.99,,2013-02-06 20:42:00,
2013-02-06 15:52:00,28.0,14.0,-100.00,South,175,9.0,16.0,55,0.00,,,-99.99,,2013-02-06 20:52:00,
2013-02-06 16:02:00,28.0,14.0,-100.00,South,175,7.0,11.0,56,0.00,,,-99.99,,2013-02-06 21:02:00,
2013-02-06 16:11:00,28.0,14.0,-100.00,South,175,7.0,9.0,56,0.00,,,-99.99,,2013-02-06 21:11:00,
2013-02-06 16:21:00,28.0,14.0,-100.00,South,180,7.0,9.0,55,0.00,,,-99.99,,2013-02-06 21:21:00,
2013-02-06 16:32:00,28.0,14.0,-100.00,South,175,6.0,9.0,55,0.00,,,-99.99,,2013-02-06 21:32:00,
2013-02-06 16:42:00,27.0,14.0,-100.00,South,180,7.0,9.0,58,0.00,,,-99.99,,2013-02-06 21:42:00,
2013-02-06 16:51:00,27.0,14.0,-100.00,South,175,7.0,11.0,57,0.00,,,-99.99,,2013-02-06 21:51:00,
2013-02-06 17:01:00,27.0,13.0,-100.00,South,175,7.0,9.0,57,0.00,,,-99.99,,2013-02-06 22:01:00,
2013-02-06 17:11:00,27.0,13.0,-100.00,SSE,165,6.0,10.0,57,0.00,,,-99.99,,2013-02-06 22:11:00,
2013-02-06 17:21:00,26.0,13.0,-100.00,South,170,5.0,7.0,56,0.00,,,-99.99,,2013-02-06 22:21:00,
2013-02-06 17:32:00,27.0,13.0,-100.00,SSE,155,3.0,6.0,55,0.00,,,-99.99,,2013-02-06 22:32:00,
2013-02-06 17:42:00,26.0,13.0,-100.00,SE,145,6.0,7.0,56,0.00,,,-99.99,,2013-02-06 22:42:00,
2013-02-06 17:52:00,26.0,13.0,-100.00,SSE,150,4.0,7.0,56,0.00,,,-99.99,,2013-02-06 22:52:00,
2013-02-06 18:01:00,26.0,13.0,-100.00,SSE,155,3.0,6.0,57,0.00,,,-99.99,,2013-02-06 23:01:00,
2013-02-06 18:11:00,24.0,12.0,-100.00,SE,145,5.0,6.0,59,0.00,,,-99.99,,2013-02-06 23:11:00,
2013-02-06 18:21:00,24.0,13.0,-100.00,SE,145,7.0,9.0,60,0.00,,,-99.99,,2013-02-06 23:21:00,
2013-02-06 18:32:00,24.0,13.0,-100.00,SE,145,7.0,9.0,62,0.00,,,-99.99,,2013-02-06 23:32:00,
2013-02-06 18:42:00,23.0,12.0,-100.00,SE,135,4.0,7.0,62,0.00,,,-99.99,,2013-02-06 23:42:00,
2013-02-06 18:52:00,22.0,12.0,-100.00,SE,125,4.0,6.0,65,0.00,,,-99.99,,2013-02-06 23:52:00,
2013-02-06 19:02:00,22.0,12.0,-100.00,ESE,110,3.0,6.0,66,0.00,,,-99.99,,2013-02-07 00:02:00,
2013-02-06 19:11:00,23.0,13.0,-100.00,SE,130,2.0,5.0,64,0.00,,,-99.99,,2013-02-07 00:11:00,
2013-02-06 19:21:00,23.0,13.0,-100.00,ESE,120,2.0,3.0,63,0.00,,,-99.99,,2013-02-07 00:21:00,
2013-02-06 19:32:00,22.0,12.0,-100.00,East,100,3.0,4.0,64,0.00,,,-99.99,,2013-02-07 00:32:00,
2013-02-06 19:42:00,22.0,13.0,-100.00,ESE,105,4.0,5.0,65,0.00,,,-99.99,,2013-02-07 00:42:00,
2013-02-06 19:52:00,22.0,12.0,-100.00,SE,130,4.0,6.0,65,0.00,,,-99.99,,2013-02-07 00:52:00,
2013-02-06 20:01:00,22.0,13.0,-100.00,ESE,105,4.0,5.0,65,0.00,,,-99.99,,2013-02-07 01:01:00,
2013-02-06 20:11:00,23.0,13.0,-100.00,ESE,115,6.0,7.0,65,0.00,,,-99.99,,2013-02-07 01:11:00,
2013-02-06 20:21:00,23.0,13.0,-100.00,ESE,110,4.0,7.0,65,0.00,,,-99.99,,2013-02-07 01:21:00,
2013-02-06 20:32:00,23.0,13.0,-100.00,ESE,110,5.0,7.0,65,0.00,,,-99.99,,2013-02-07 01:32:00,
2013-02-06 20:42:00,24.0,13.0,-100.00,ESE,115,4.0,7.0,63,0.00,,,-99.99,,2013-02-07 01:42:00,
2013-02-06 20:52:00,23.0,13.0,-100.00,ESE,110,5.0,7.0,65,0.00,,,-99.99,,2013-02-07 01:52:00,
2013-02-06 21:02:00,23.0,14.0,-100.00,East,100,6.0,6.0,66,0.00,,,-99.99,,2013-02-07 02:02:00,
2013-02-06 21:11:00,23.0,13.0,-100.00,ESE,115,6.0,9.0,65,0.00,,,-99.99,,2013-02-07 02:11:00,
2013-02-06 21:21:00,23.0,13.0,-100.00,ESE,110,5.0,7.0,65,0.00,,,-99.99,,2013-02-07 02:21:00,
2013-02-06 21:32:00,23.0,13.0,-100.00,East,100,7.0,9.0,65,0.00,,,-99.99,,2013-02-07 02:32:00,
2013-02-06 21:41:00,23.0,13.0,-100.00,East,100,7.0,9.0,65,0.00,,,-99.99,,2013-02-07 02:41:00,
2013-02-06 21:51:00,23.0,13.0,-100.00,East,100,7.0,9.0,65,0.00,,,-99.99,,2013-02-07 02:51:00,
2013-02-06 22:02:00,23.0,13.0,-100.00,ESE,115,5.0,7.0,66,0.00,,,-99.99,,2013-02-07 03:02:00,
2013-02-06 22:11:00,23.0,13.0,-100.00,ESE,115,8.0,11.0,64,0.00,,,-99.99,,2013-02-07 03:11:00,
2013-02-06 22:21:00,23.0,13.0,-100.00,SE,125,6.0,10.0,65,0.00,,,-99.99,,2013-02-07 03:21:00,
2013-02-06 22:32:00,23.0,14.0,-100.00,SE,125,4.0,7.0,69,0.00,,,-99.99,,2013-02-07 03:32:00,
2013-02-06 22:42:00,23.0,14.0,-100.00,SE,130,6.0,9.0,68,0.00,,,-99.99,,2013-02-07 03:42:00,
2013-02-06 22:52:00,24.0,15.0,-100.00,SE,135,7.0,9.0,68,0.00,,,-99.99,,2013-02-07 03:52:00,
2013-02-06 23:01:00,24.0,15.0,-100.00,SE,130,6.0,9.0,67,0.00,,,-99.99,,2013-02-07 04:01:00,
2013-02-06 23:11:00,24.0,15.0,-100.00,ESE,120,6.0,9.0,68,0.00,,,-99.99,,2013-02-07 04:11:00,
2013-02-06 23:22:00,25.0,15.0,-100.00,SE,140,6.0,11.0,67,0.00,,,-99.99,,2013-02-07 04:22:00,
2013-02-06 23:32:00,25.0,15.0,-100.00,SSE,155,2.0,6.0,66,0.00,,,-99.99,,2013-02-07 04:32:00,
2013-02-06 23:41:00,26.0,16.0,-100.00,SE,130,3.0,5.0,65,0.00,,,-99.99,,2013-02-07 04:41:00,
2013-02-06 23:53:00,25.0,16.0,-100.00,SE,145,4.0,6.0,66,0.00,,,-99.99,,2013-02-07 04:53:00,